EW7909 Weather Reports


Display with metric or nautical units.
time (UTC)temp
F
wind
direction
speed
MPH
gust
MPH
rain 1hr
in
rain 24hr
in
rain mn
in
humidity
%
barometer
mb
20260503020006 53 9 0.0 0.0 0.00 0.00 0.00 66 1013.2
20260503014505 53 9 0.0 0.0 0.00 0.00 0.00 66 1013.3
20260503013001 54 9 0.0 0.0 0.00 0.00 0.00 67 1013.3
20260503011608 54 9 0.0 1.0 0.00 0.00 0.00 68 1013.3
20260503010101 53 9 1.0 3.0 0.00 0.00 0.00 69 1013.2
20260503004556 54 9 0.0 3.0 0.00 0.00 0.00 70 1013.6
20260503003100 55 9 1.0 3.0 0.00 0.00 0.00 71 1013.6
20260503001550 55 9 0.0 0.0 0.00 0.00 0.00 71 1013.9
20260503000100 55 9 0.0 0.0 0.00 0.00 0.00 72 1014.0
20260502234547 56 9 0.0 0.0 0.00 0.00 0.00 71 1014.2
20260502233047 57 9 0.0 0.0 0.00 0.00 0.00 71 1014.2
20260502231546 56 9 1.0 3.0 0.00 0.00 0.00 71 1014.2
20260502230043 56 9 1.0 4.0 0.00 0.00 0.00 71 1014.2
20260502224539 58 265 2.0 3.0 0.00 0.00 0.00 67 1014.2
20260502223035 59 263 0.0 2.0 0.00 0.00 0.00 67 1014.2
20260502221532 59 263 0.0 3.0 0.00 0.00 0.00 67 1014.2
20260502220056 58 263 0.0 2.0 0.00 0.00 0.00 67 1014.2
20260502214536 59 263 0.0 2.0 0.00 0.00 0.00 66 1014.2
20260502213133 59 263 0.0 2.0 0.00 0.00 0.00 65 1014.3
20260502211555 59 264 0.0 0.0 0.00 0.00 0.00 64 1014.3
20260502210008 58 265 0.0 2.0 0.00 0.00 0.00 63 1014.3
20260502204615 58 265 0.0 3.0 0.00 0.00 0.00 66 1014.3
20260502203026 58 265 1.0 3.0 0.00 0.00 0.00 66 1014.3
20260502201612 59 265 1.0 3.0 0.00 0.00 0.00 65 1014.2
20260502200043 61 267 0.0 3.0 0.00 0.00 0.00 58 1014.2
20260502194502 62 267 0.0 0.0 0.00 0.00 0.00 55 1014.1
20260502193049 63 267 0.0 3.0 0.00 0.00 0.00 55 1013.9
20260502191519 64 267 0.0 0.0 0.00 0.00 0.00 54 1013.9
20260502190103 65 267 0.0 0.0 0.00 0.00 0.00 54 1013.7
20260502184528 66 267 0.0 2.0 0.00 0.00 0.00 53 1013.6
20260502183114 68 267 0.0 3.0 0.00 0.00 0.00 55 1013.6
20260502181548 70 278 0.0 0.0 0.00 0.00 0.00 56 1013.6
20260502180131 71 278 0.0 2.0 0.00 0.00 0.00 55 1013.5
20260502163035 75 271 2.0 7.0 0.00 0.00 0.00 51 1013.7
20260502161613 75 238 4.0 7.0 0.00 0.00 0.00 49 1014.0
20260502151504 74 309 0.0 4.0 0.00 0.00 0.00 48 1014.6
20260502150112 74 314 2.0 5.0 0.00 0.00 0.00 49 1014.7
20260502140103 74 291 4.0 9.0 0.00 0.00 0.00 45 1015.5
20260502123026 73 250 4.0 8.0 0.00 0.00 0.00 49 1016.5
20260502121606 73 126 3.0 5.0 0.00 0.00 0.00 51 1016.7
20260502114614 71 62 3.0 8.0 0.00 0.00 0.00 54 1017.2
20260502113033 70 325 2.0 4.0 0.00 0.00 0.00 57 1017.4
20260502111623 70 284 4.0 8.0 0.00 0.00 0.00 56 1017.7
20260502110044 69 50 2.0 7.0 0.00 0.00 0.00 55 1018.0
20260502104516 69 86 2.0 8.0 0.00 0.00 0.00 56 1018.1
20260502103106 68 34 3.0 7.0 0.00 0.00 0.00 57 1018.4
20260502101515 67 53 2.0 7.0 0.00 0.00 0.00 60 1018.6
20260502091511 65 57 2.0 6.0 0.00 0.00 0.00 64 1019.3
20260502070055 61 106 0.0 0.0 0.00 0.00 0.00 69 1020.4
20260502064551 59 106 0.0 0.0 0.00 0.00 0.00 70 1020.5
20260502063101 57 106 0.0 0.0 0.00 0.00 0.00 69 1020.6
20260502061548 55 106 0.0 0.0 0.00 0.00 0.00 63 1020.7
20260502060039 54 106 0.0 0.0 0.00 0.00 0.00 54 1020.6
20260502054536 52 106 0.0 0.0 0.00 0.00 0.00 24 1020.6
20260502053050 51 106 0.0 0.0 0.00 0.00 0.00 35 1020.6
20260502051537 50 106 0.0 0.0 0.00 0.00 0.00 24 1020.5
20260502050035 50 106 0.0 0.0 0.00 0.00 0.00 23 1020.5
20260502044534 49 106 0.0 0.0 0.00 0.00 0.00 26 1020.5
20260502043036 49 106 0.0 0.0 0.00 0.00 0.00 28 1020.4
20260502041531 49 106 0.0 0.0 0.00 0.00 0.00 33 1020.5
20260502040030 49 106 0.0 0.0 0.00 0.00 0.00 32 1020.5
20260502034530 49 106 0.0 0.0 0.00 0.00 0.00 41 1020.3
20260502033028 50 106 0.0 0.0 0.00 0.00 0.00 42 1020.5
20260502031528 50 106 0.0 0.0 0.00 0.00 0.00 36 1020.5
20260502030027 50 106 0.0 0.0 0.00 0.00 0.00 31 1020.5
20260502024528 50 106 0.0 0.0 0.00 0.00 0.00 30 1020.6
20260502023031 50 106 0.0 0.0 0.00 0.00 0.00 31 1020.6
20260502021528 49 106 0.0 0.0 0.00 0.00 0.00 34 1020.6